Terminal Aerodrome Forecast
Issued by NWS Wilmington, OH

Current Version | Previous Version | Graphics & Text | Print | Product List | Glossary On
Versions: 1 2 3 4 5 6 7 8 9 10 11 12 13 14 15 16 17 18 19 20 21 22 23 24
000
FTUS41 KILN 260200 AAA
TAFCMH
TAF AMD
KCMH 260208Z 2602/2624 04007KT 1SM -SN BR OVC006
     FM260300 02013G21KT 1SM -SN OVC005
      TEMPO 2603/2607 1/2SM SN OVC002
     FM261000 36014G20KT 5SM -SN OVC015
     FM261300 34011KT P6SM OVC012=

USA.gov is the U.S. government's official web portal to all federal, state and local government web resources and services.